Location: Saluda
(35.2377°N, 82.3468°W)
Time: 05:10:56
(UTC+00:00)

Tiros 1 - Pass Details

Date: 08 October 2022
Orbit: 629 x 662 km, 48.4° (Epoch: 09 December)

Event Time Altitude Azimuth Distance (km) Brightness Sun altitude
Exits shadow 10:18:52 23° 244° (WSW) 1,366 8.3 -15.3°
Maximum altitude 10:19:39 24° 228° (SW) 1,326 8.3 -15.1°
Drops below altitude 10° 10:23:25 10° 174° (S) 2,027 9.7 -14.4°
Sets 10:26:04 0° 161° (SSE) 2,926 10.7 -13.8°
